contact:dominique.lefevre@mio.osupytheas.fr, maurice.libes@osupytheas.fr, didier.mallarino@osupytheas.fr
Project:EMSO http://www.emso-fr.org/EMSO-France
Depth: 2436.0 m
Title:EMSO Ligure Ouest : Data MII capteur AQUADOPP
Date,Latitude,Longitude,X_East,Y_North,Z_Up,Amplitude_X,Amplitude_Y,Amplitude_Z,Batterie,SoundSpeed,Heading,Pitch,Roll,Pressure,TIS,Speed,Direction
, degrees North, degrees East, m.s-1, m.s-1,m.s-1, 1, 1, 1, Volt, m.s-1, degree, degree, degree, dbar, degree_C, m.s-1, degree
2023-08-16T00:04:03,42.805,6.029,-0.004,0.013,-0.008,103.0,104.0,102.0,13.4,1505.2,329.9,-0.8,1.8,2471.478,13.29,0.013,342.9
2023-08-16T00:07:03,42.805,6.029,-0.001,0.012,0.039,104.0,105.0,102.0,13.4,1505.2,324.2,-0.7,1.8,2471.464,13.29,0.012,355.2
2023-08-16T00:10:03,42.805,6.029,-0.014,-0.002,-0.018,104.0,104.0,102.0,13.3,1505.2,331.6,-0.8,1.8,2471.445,13.29,0.014,261.9
2023-08-16T00:13:03,42.805,6.029,0.007,0.019,0.015,104.0,105.0,101.0,13.4,1505.2,337.6,-0.8,1.9,2471.484,13.29,0.02,20.2
2023-08-16T00:16:03,42.805,6.029,0.01,0.0,0.0,104.0,103.0,102.0,13.4,1505.2,342.2,-0.8,1.8,2471.449,13.29,0.01,90.0
2023-08-16T00:19:03,42.805,6.029,-0.002,0.0,-0.017,103.0,104.0,102.0,13.3,1505.2,352.1,-0.8,1.8,2471.447,13.29,0.002,270.0
2023-08-16T00:22:03,42.805,6.029,0.004,-0.008,-0.011,105.0,106.0,100.0,13.3,1505.2,338.4,-0.8,1.8,2471.479,13.29,0.008,153.4
2023-08-16T00:25:03,42.805,6.029,0.026,0.007,0.011,104.0,104.0,102.0,13.3,1505.2,344.9,-0.8,1.8,2471.419,13.29,0.026,74.9
2023-08-16T00:28:03,42.805,6.029,-0.007,0.014,-0.002,104.0,104.0,102.0,13.4,1505.2,322.2,-0.8,1.8,2471.404,13.3,0.015,333.4
2023-08-16T00:31:03,42.805,6.029,0.013,0.023,-0.023,104.0,104.0,102.0,13.3,1505.2,341.5,-0.8,1.8,2471.433,13.3,0.026,29.5
2023-08-16T00:34:03,42.805,6.029,-0.008,0.022,0.005,104.0,104.0,103.0,13.4,1505.2,332.6,-0.7,1.8,2471.376,13.3,0.023,340.0
2023-08-16T00:37:03,42.805,6.029,0.022,-0.007,-0.014,103.0,103.0,102.0,13.4,1505.2,343.5,-0.8,1.8,2471.433,13.3,0.023,107.6
2023-08-16T00:40:03,42.805,6.029,0.0,0.01,-0.048,103.0,103.0,103.0,13.4,1505.2,331.0,-0.8,1.8,2471.394,13.3,0.01,0.0
2023-08-16T00:43:03,42.805,6.029,-0.007,0.015,-0.013,104.0,104.0,102.0,13.4,1505.2,329.8,-0.7,1.8,2471.437,13.29,0.016,335.0
2023-08-16T00:46:03,42.805,6.029,0.013,0.007,0.011,105.0,103.0,102.0,13.4,1505.2,323.4,-0.8,1.8,2471.451,13.29,0.014,61.7
2023-08-16T00:49:03,42.805,6.029,0.014,-0.011,-0.039,105.0,104.0,102.0,13.4,1505.2,337.2,-0.8,1.8,2471.435,13.29,0.017,128.2
2023-08-16T00:52:03,42.805,6.029,0.023,0.003,-0.002,104.0,103.0,102.0,13.4,1505.2,324.8,-0.8,1.9,2471.423,13.29,0.023,82.6
2023-08-16T00:55:03,42.805,6.029,0.009,-0.008,-0.003,103.0,103.0,102.0,13.3,1505.2,329.4,-0.8,1.8,2471.419,13.29,0.012,131.6
2023-08-16T00:58:03,42.805,6.029,0.012,-0.003,-0.019,103.0,104.0,102.0,13.4,1505.2,334.4,-0.8,1.8,2471.395,13.29,0.012,104.0
2023-08-16T01:04:03,42.805,6.029,0.009,-0.019,-0.032,104.0,105.0,103.0,13.3,1505.2,334.9,-0.8,1.8,2471.471,13.29,0.021,154.7
2023-08-16T01:07:03,42.805,6.029,0.027,0.004,-0.025,104.0,103.0,101.0,13.4,1505.2,324.7,-0.8,1.8,2471.428,13.29,0.027,81.6
2023-08-16T01:10:03,42.805,6.029,0.007,0.014,0.0,103.0,104.0,102.0,13.4,1505.2,340.0,-0.7,1.8,2471.416,13.29,0.015,26.6
2023-08-16T01:13:03,42.805,6.029,0.026,0.008,-0.005,103.0,103.0,102.0,13.4,1505.2,349.1,-0.7,1.8,2471.447,13.29,0.027,72.9
2023-08-16T01:16:03,42.805,6.029,0.007,-0.006,0.0,104.0,104.0,101.0,13.3,1505.2,322.1,-0.8,1.8,2471.384,13.29,0.009,130.6
2023-08-16T01:19:03,42.805,6.029,0.031,0.007,0.007,104.0,102.0,102.0,13.4,1505.2,346.7,-0.8,1.8,2471.391,13.29,0.031,77.3
2023-08-16T01:22:03,42.805,6.029,0.008,0.01,-0.009,103.0,103.0,102.0,13.4,1505.2,330.3,-0.8,1.8,2471.402,13.29,0.012,38.7
2023-08-16T01:25:03,42.805,6.029,0.01,-0.026,-0.014,104.0,104.0,102.0,13.3,1505.2,331.2,-0.8,1.8,2471.389,13.29,0.027,159.0
2023-08-16T01:28:03,42.805,6.029,0.024,-0.01,-0.036,104.0,102.0,102.0,13.4,1505.2,325.5,-0.8,1.8,2471.386,13.29,0.026,112.6
2023-08-16T01:31:03,42.805,6.029,0.025,0.002,-0.009,104.0,104.0,102.0,13.4,1505.2,338.3,-0.8,1.8,2471.408,13.29,0.025,85.4
2023-08-16T01:34:03,42.805,6.029,0.009,0.005,-0.025,104.0,103.0,102.0,13.4,1505.2,328.4,-0.8,1.8,2471.396,13.29,0.01,60.9
2023-08-16T01:37:03,42.805,6.029,0.007,0.007,0.008,105.0,103.0,101.0,13.4,1505.2,329.6,-0.8,1.8,2471.374,13.29,0.009,45.0
2023-08-16T01:40:03,42.805,6.029,0.03,0.0,0.015,103.0,105.0,102.0,13.3,1505.2,338.4,-0.8,1.8,2471.373,13.29,0.03,90.0
2023-08-16T01:43:03,42.805,6.029,0.02,-0.027,-0.014,103.0,104.0,102.0,13.4,1505.2,339.7,-0.8,1.8,2471.404,13.29,0.033,143.5
2023-08-16T01:46:03,42.805,6.029,0.036,0.004,-0.01,104.0,104.0,101.0,13.4,1505.2,330.7,-0.8,1.8,2471.382,13.29,0.036,83.7
2023-08-16T01:49:03,42.805,6.029,0.001,-0.006,-0.031,104.0,104.0,101.0,13.4,1505.2,333.8,-0.8,1.8,2471.408,13.29,0.006,170.5
2023-08-16T01:52:03,42.805,6.029,0.023,-0.021,-0.011,104.0,103.0,102.0,13.4,1505.2,353.0,-0.8,1.8,2471.401,13.29,0.031,132.4
2023-08-16T01:55:03,42.805,6.029,0.01,0.015,-0.012,104.0,104.0,102.0,13.3,1505.2,324.4,-0.7,1.8,2471.406,13.29,0.018,33.7
2023-08-16T01:58:03,42.805,6.029,0.023,-0.003,-0.022,104.0,103.0,101.0,13.4,1505.2,326.8,-0.8,1.8,2471.41,13.29,0.023,97.4
2023-08-16T02:01:03,42.805,6.029,0.028,-0.003,-0.019,103.0,103.0,102.0,13.4,1505.2,325.3,-0.8,1.8,2471.373,13.29,0.028,96.1
2023-08-16T02:04:03,42.805,6.029,0.039,-0.036,0.005,104.0,103.0,102.0,13.3,1505.2,349.1,-0.8,1.8,2471.371,13.29,0.053,132.7
2023-08-16T02:07:03,42.805,6.029,0.031,-0.002,-0.002,103.0,104.0,102.0,13.3,1505.2,332.5,-0.8,1.8,2471.413,13.29,0.031,93.7
2023-08-16T02:10:03,42.805,6.029,0.015,-0.004,-0.022,104.0,102.0,103.0,13.4,1505.2,339.9,-0.7,1.8,2471.385,13.29,0.015,104.9
2023-08-16T02:13:03,42.805,6.029,0.021,-0.006,0.01,104.0,103.0,102.0,13.4,1505.2,331.9,-0.8,1.8,2471.365,13.29,0.021,105.9
2023-08-16T02:16:03,42.805,6.029,0.011,-0.012,0.006,103.0,104.0,102.0,13.4,1505.2,350.7,-0.8,1.8,2471.391,13.29,0.016,137.5
2023-08-16T02:19:03,42.805,6.029,0.007,-0.013,-0.022,104.0,103.0,102.0,13.4,1505.2,340.9,-0.8,1.8,2471.384,13.29,0.014,151.7
2023-08-16T02:22:03,42.805,6.029,0.018,0.006,-0.004,103.0,104.0,103.0,13.4,1505.2,330.2,-0.8,1.8,2471.363,13.29,0.018,71.6
2023-08-16T02:25:03,42.805,6.029,0.02,-0.021,0.004,104.0,104.0,101.0,13.4,1505.2,323.6,-0.8,1.8,2471.411,13.29,0.028,136.4
2023-08-16T02:28:03,42.805,6.029,0.022,-0.01,-0.043,104.0,104.0,100.0,13.4,1505.2,337.0,-0.8,1.8,2471.377,13.29,0.024,114.4
2023-08-16T02:31:03,42.805,6.029,0.028,0.0,-0.009,103.0,104.0,102.0,13.3,1505.2,332.5,-0.7,1.9,2471.374,13.29,0.028,90.0
2023-08-16T02:34:03,42.805,6.029,0.034,-0.012,-0.029,104.0,104.0,102.0,13.3,1505.2,328.5,-0.7,1.8,2471.398,13.29,0.036,109.4
2023-08-16T02:37:03,42.805,6.029,0.032,-0.03,-0.019,103.0,103.0,102.0,13.4,1505.2,350.3,-0.8,1.8,2471.388,13.29,0.043,133.1
2023-08-16T02:40:03,42.805,6.029,0.02,-0.024,-0.033,105.0,103.0,101.0,13.4,1505.2,344.3,-0.8,1.8,2471.383,13.29,0.031,140.2
2023-08-16T02:43:03,42.805,6.029,0.014,-0.016,0.001,104.0,104.0,101.0,13.4,1505.2,336.1,-0.8,1.8,2471.384,13.29,0.021,138.8
2023-08-16T02:46:03,42.805,6.029,0.006,-0.009,-0.006,104.0,104.0,101.0,13.4,1505.2,333.4,-0.7,1.8,2471.4,13.29,0.01,146.3
2023-08-16T02:49:03,42.805,6.029,0.019,0.005,-0.023,103.0,102.0,102.0,13.4,1505.2,340.2,-0.8,1.8,2471.353,13.29,0.019,75.3
2023-08-16T02:52:03,42.805,6.029,0.019,-0.003,-0.038,104.0,102.0,101.0,13.4,1505.2,334.6,-0.8,1.8,2471.364,13.29,0.019,99.0
2023-08-16T02:55:03,42.805,6.029,0.015,-0.025,-0.037,104.0,103.0,101.0,13.3,1505.2,348.6,-0.8,1.8,2471.416,13.29,0.029,149.0
2023-08-16T02:58:03,42.805,6.029,0.02,-0.02,-0.027,103.0,103.0,102.0,13.4,1505.2,337.2,-0.8,1.8,2471.329,13.29,0.028,135.0
2023-08-16T03:01:03,42.805,6.029,0.009,-0.026,-0.029,104.0,103.0,102.0,13.4,1505.2,334.3,-0.8,1.8,2471.383,13.29,0.027,160.9
2023-08-16T03:04:03,42.805,6.029,0.02,-0.026,-0.028,102.0,105.0,102.0,13.4,1505.2,341.8,-0.7,1.8,2471.382,13.29,0.032,142.4
2023-08-16T03:07:03,42.805,6.029,0.016,-0.022,-0.004,105.0,103.0,100.0,13.3,1505.2,329.5,-0.8,1.8,2471.363,13.29,0.027,144.0
2023-08-16T03:10:03,42.805,6.029,0.042,-0.005,0.007,103.0,103.0,101.0,13.3,1505.2,318.3,-0.8,1.8,2471.377,13.29,0.042,96.8
2023-08-16T03:13:03,42.805,6.029,0.031,-0.021,0.002,103.0,103.0,102.0,13.3,1505.2,333.9,-0.8,1.8,2471.347,13.29,0.037,124.1
2023-08-16T03:16:03,42.805,6.029,0.0,-0.01,-0.027,104.0,102.0,102.0,13.4,1505.2,321.6,-0.8,1.8,2471.361,13.29,0.01,180.0
2023-08-16T03:19:03,42.805,6.029,0.027,-0.024,0.013,105.0,103.0,102.0,13.4,1505.2,339.5,-0.7,1.8,2471.362,13.29,0.036,131.6
2023-08-16T03:22:03,42.805,6.029,0.029,-0.02,-0.024,103.0,104.0,101.0,13.4,1505.2,339.7,-0.7,1.8,2471.378,13.29,0.035,124.6
2023-08-16T03:25:03,42.805,6.029,0.035,-0.008,-0.029,103.0,105.0,102.0,13.4,1505.2,330.2,-0.8,1.8,2471.419,13.29,0.035,102.9
2023-08-16T03:28:03,42.805,6.029,0.046,-0.007,-0.039,103.0,103.0,102.0,13.4,1505.2,325.5,-0.8,1.8,2471.382,13.29,0.046,98.7
2023-08-16T03:31:03,42.805,6.029,0.034,-0.011,-0.012,104.0,104.0,102.0,13.4,1505.2,339.5,-0.8,1.8,2471.395,13.29,0.035,107.9
2023-08-16T03:34:03,42.805,6.029,0.012,-0.028,-0.009,104.0,104.0,101.0,13.4,1505.2,343.1,-0.8,1.8,2471.388,13.29,0.03,156.8
2023-08-16T03:37:03,42.805,6.029,0.031,-0.019,-0.026,104.0,104.0,102.0,13.4,1505.2,344.5,-0.8,1.8,2471.426,13.29,0.036,121.5
2023-08-16T03:40:03,42.805,6.029,0.022,0.0,-0.007,104.0,102.0,102.0,13.4,1505.2,322.0,-0.7,1.8,2471.388,13.29,0.022,90.0
2023-08-16T03:43:03,42.805,6.029,0.007,0.0,0.0,104.0,104.0,102.0,13.4,1505.2,333.0,-0.8,1.8,2471.376,13.29,0.007,90.0
2023-08-16T03:46:03,42.805,6.029,0.019,-0.012,-0.018,104.0,104.0,101.0,13.4,1505.2,332.3,-0.7,1.8,2471.41,13.29,0.022,122.3
2023-08-16T03:49:03,42.805,6.029,0.039,-0.022,-0.009,104.0,104.0,101.0,13.4,1505.2,331.9,-0.7,1.8,2471.413,13.29,0.044,119.4
2023-08-16T03:52:03,42.805,6.029,0.025,-0.021,-0.009,104.0,103.0,102.0,13.4,1505.2,350.3,-0.8,1.8,2471.397,13.29,0.032,130.0
2023-08-16T03:55:03,42.805,6.029,-0.002,-0.008,-0.039,103.0,103.0,102.0,13.4,1505.2,337.7,-0.8,1.8,2471.396,13.29,0.008,194.0
2023-08-16T03:58:03,42.805,6.029,0.018,-0.008,-0.013,104.0,104.0,101.0,13.3,1505.2,340.3,-0.7,1.8,2471.371,13.29,0.019,114.0
2023-08-16T04:04:03,42.805,6.029,0.029,-0.018,-0.018,104.0,104.0,102.0,13.3,1505.2,349.3,-0.8,1.8,2471.416,13.28,0.034,121.8
2023-08-16T04:07:03,42.805,6.029,0.03,-0.017,0.006,104.0,104.0,101.0,13.4,1505.2,332.0,-0.8,1.8,2471.431,13.29,0.034,119.5
2023-08-16T04:10:03,42.805,6.029,0.015,-0.03,-0.039,104.0,104.0,102.0,13.4,1505.2,343.7,-0.8,1.8,2471.439,13.29,0.033,153.4
2023-08-16T04:13:03,42.805,6.029,0.013,-0.016,-0.009,104.0,103.0,102.0,13.4,1505.2,331.6,-0.8,1.8,2471.407,13.29,0.02,140.9
2023-08-16T04:16:03,42.805,6.029,0.026,-0.031,-0.026,103.0,103.0,102.0,13.4,1505.2,336.5,-0.8,1.8,2471.447,13.29,0.04,140.0
2023-08-16T04:19:03,42.805,6.029,0.022,-0.001,-0.009,104.0,104.0,101.0,13.4,1505.2,344.3,-0.8,1.8,2471.4,13.29,0.022,92.6
2023-08-16T04:22:03,42.805,6.029,0.03,-0.029,0.0,104.0,102.0,102.0,13.3,1505.2,350.3,-0.8,1.8,2471.425,13.29,0.041,134.0
2023-08-16T04:25:03,42.805,6.029,0.038,0.004,-0.003,103.0,104.0,102.0,13.4,1505.2,322.9,-0.8,1.8,2471.438,13.29,0.038,84.0
2023-08-16T04:28:03,42.805,6.029,0.036,-0.003,-0.033,104.0,102.0,101.0,13.4,1505.2,336.5,-0.8,1.8,2471.41,13.29,0.036,94.8
2023-08-16T04:31:03,42.805,6.029,0.036,-0.035,-0.013,103.0,103.0,102.0,13.3,1505.2,341.1,-0.8,1.8,2471.421,13.29,0.05,134.2
2023-08-16T04:34:03,42.805,6.029,0.022,-0.012,0.008,104.0,102.0,103.0,13.4,1505.2,322.2,-0.8,1.8,2471.42,13.29,0.025,118.6
2023-08-16T04:37:03,42.805,6.029,0.026,-0.033,-0.016,104.0,103.0,101.0,13.4,1505.2,351.4,-0.8,1.8,2471.423,13.29,0.042,141.8
2023-08-16T04:40:03,42.805,6.029,0.022,0.017,0.0,103.0,103.0,102.0,13.3,1505.2,332.0,-0.8,1.8,2471.491,13.29,0.027,52.3
2023-08-16T04:43:03,42.805,6.029,0.03,-0.016,0.007,102.0,103.0,101.0,13.4,1505.2,326.9,-0.8,1.8,2471.425,13.29,0.034,118.1
2023-08-16T04:46:03,42.805,6.029,0.028,-0.02,-0.042,104.0,104.0,101.0,13.4,1505.2,327.1,-0.8,1.8,2471.455,13.29,0.034,125.5
2023-08-16T04:49:03,42.805,6.029,0.039,0.006,0.019,102.0,103.0,102.0,13.4,1505.2,326.0,-0.7,1.8,2471.427,13.29,0.039,81.3
2023-08-16T04:52:03,42.805,6.029,0.027,-0.019,-0.024,104.0,103.0,102.0,13.3,1505.2,332.1,-0.8,1.8,2471.442,13.29,0.033,125.1
2023-08-16T04:55:03,42.805,6.029,0.038,-0.036,-0.012,105.0,104.0,102.0,13.3,1505.2,335.7,-0.8,1.8,2471.442,13.29,0.052,133.5
2023-08-16T04:58:03,42.805,6.029,0.03,-0.023,-0.017,103.0,104.0,102.0,13.4,1505.2,348.4,-0.7,1.8,2471.427,13.29,0.037,127.5
2023-08-16T05:04:03,42.805,6.029,0.042,-0.024,0.006,104.0,104.0,101.0,13.4,1505.2,333.4,-0.8,1.8,2471.467,13.28,0.048,119.7
2023-08-16T05:07:03,42.805,6.029,0.008,-0.035,-0.058,103.0,104.0,101.0,13.3,1505.2,332.4,-0.8,1.8,2471.518,13.29,0.035,167.1
2023-08-16T05:10:03,42.805,6.029,0.016,-0.013,0.001,104.0,103.0,102.0,13.3,1505.2,353.1,-0.8,1.8,2471.504,13.29,0.02,129.1
2023-08-16T05:13:03,42.805,6.029,0.044,-0.015,-0.027,103.0,104.0,102.0,13.4,1505.2,342.3,-0.8,1.9,2471.481,13.29,0.046,108.8
2023-08-16T05:16:03,42.805,6.029,0.016,-0.026,-0.023,104.0,103.0,103.0,13.3,1505.2,340.7,-0.8,1.8,2471.43,13.29,0.03,148.4
2023-08-16T05:19:03,42.805,6.029,0.02,-0.014,0.0,103.0,103.0,102.0,13.3,1505.2,322.9,-0.8,1.8,2471.49,13.29,0.024,125.0
2023-08-16T05:22:03,42.805,6.029,0.037,-0.023,-0.003,105.0,103.0,102.0,13.4,1505.2,324.0,-0.8,1.8,2471.455,13.29,0.043,121.9
2023-08-16T05:25:03,42.805,6.029,0.022,-0.01,0.001,104.0,103.0,102.0,13.3,1505.2,337.2,-0.8,1.9,2471.452,13.29,0.024,114.4
2023-08-16T05:28:03,42.805,6.029,0.024,-0.004,-0.012,105.0,103.0,101.0,13.4,1505.2,327.7,-0.8,1.8,2471.464,13.29,0.024,99.5
2023-08-16T05:31:03,42.805,6.029,0.026,-0.001,-0.027,103.0,103.0,101.0,13.4,1505.2,327.4,-0.7,1.8,2471.462,13.29,0.026,92.2
2023-08-16T05:34:03,42.805,6.029,0.001,-0.018,-0.023,104.0,104.0,102.0,13.3,1505.2,350.1,-0.8,1.8,2471.421,13.29,0.018,176.8
2023-08-16T05:37:03,42.805,6.029,0.023,-0.022,-0.006,103.0,103.0,103.0,13.4,1505.2,337.2,-0.8,1.8,2471.47,13.29,0.031,133.7
2023-08-16T05:40:03,42.805,6.029,0.007,-0.045,-0.006,103.0,104.0,102.0,13.4,1505.2,353.1,-0.8,1.8,2471.447,13.29,0.045,171.2
2023-08-16T05:43:03,42.805,6.029,0.0,-0.029,-0.029,105.0,103.0,102.0,13.4,1505.2,337.0,-0.8,1.8,2471.487,13.29,0.028,180.0
2023-08-16T05:46:03,42.805,6.029,-0.001,-0.026,-0.016,104.0,104.0,102.0,13.3,1505.2,329.8,-0.8,1.8,2471.467,13.29,0.026,182.2
2023-08-16T05:49:03,42.805,6.029,0.015,-0.016,-0.017,104.0,103.0,102.0,13.4,1505.2,342.8,-0.8,1.8,2471.491,13.29,0.021,136.9
2023-08-16T05:52:03,42.805,6.029,0.015,-0.032,-0.03,103.0,105.0,101.0,13.4,1505.2,327.6,-0.8,1.8,2471.423,13.29,0.035,154.9
2023-08-16T05:55:03,42.805,6.029,-0.005,-0.031,-0.021,103.0,104.0,101.0,13.3,1505.2,352.0,-0.7,1.8,2471.467,13.29,0.031,189.2
2023-08-16T05:58:03,42.805,6.029,0.006,-0.029,-0.048,104.0,103.0,103.0,13.4,1505.2,340.4,-0.8,1.8,2471.449,13.29,0.029,168.3
2023-08-16T06:04:03,42.805,6.029,0.024,-0.046,-0.012,104.0,103.0,102.0,13.3,1505.2,329.8,-0.8,1.8,2471.507,13.28,0.051,152.4
2023-08-16T06:07:03,42.805,6.029,0.036,-0.014,0.0,104.0,103.0,102.0,13.4,1505.2,336.6,-0.8,1.8,2471.507,13.28,0.038,111.2
2023-08-16T06:10:03,42.805,6.029,0.029,-0.032,-0.041,104.0,104.0,102.0,13.4,1505.2,328.8,-0.7,1.8,2471.546,13.29,0.043,137.8
2023-08-16T06:13:03,42.805,6.029,0.005,-0.034,-0.03,104.0,102.0,103.0,13.4,1505.2,345.0,-0.8,1.8,2471.514,13.29,0.034,171.6
2023-08-16T06:16:03,42.805,6.029,0.031,-0.031,0.0,103.0,103.0,102.0,13.4,1505.2,327.8,-0.7,1.8,2471.478,13.29,0.043,135.0
2023-08-16T06:19:03,42.805,6.029,0.012,-0.029,-0.059,104.0,104.0,102.0,13.4,1505.2,323.5,-0.7,1.8,2471.501,13.29,0.031,157.5
2023-08-16T06:22:03,42.805,6.029,0.021,-0.03,-0.025,104.0,104.0,101.0,13.3,1505.2,330.2,-0.8,1.8,2471.494,13.29,0.036,145.0
2023-08-16T06:25:03,42.805,6.029,-0.001,0.016,-0.008,104.0,104.0,101.0,13.4,1505.2,323.6,-0.8,1.8,2471.518,13.29,0.016,356.4
2023-08-16T06:28:03,42.805,6.029,0.026,-0.038,-0.04,103.0,103.0,102.0,13.4,1505.2,332.4,-0.8,1.8,2471.488,13.29,0.046,145.6
2023-08-16T06:31:03,42.805,6.029,0.007,-0.027,-0.027,103.0,104.0,102.0,13.4,1505.2,352.0,-0.8,1.8,2471.499,13.29,0.027,165.5
2023-08-16T06:34:03,42.805,6.029,0.016,-0.031,-0.001,104.0,104.0,102.0,13.4,1505.2,339.0,-0.8,1.8,2471.498,13.29,0.034,152.7
2023-08-16T06:37:03,42.805,6.029,-0.011,-0.013,-0.034,105.0,103.0,102.0,13.4,1505.2,331.3,-0.8,1.8,2471.495,13.29,0.017,220.2
2023-08-16T06:40:03,42.805,6.029,0.017,-0.031,-0.012,104.0,104.0,102.0,13.4,1505.2,348.6,-0.8,1.8,2471.52,13.29,0.035,151.3
2023-08-16T06:43:03,42.805,6.029,0.007,-0.036,-0.026,104.0,104.0,102.0,13.4,1505.2,339.1,-0.8,1.8,2471.494,13.29,0.036,169.0
2023-08-16T06:46:03,42.805,6.029,0.015,-0.032,-0.028,104.0,104.0,102.0,13.4,1505.2,329.8,-0.8,1.8,2471.492,13.29,0.035,154.9
2023-08-16T06:49:03,42.805,6.029,0.011,-0.017,-0.01,103.0,105.0,101.0,13.3,1505.2,336.8,-0.7,1.8,2471.513,13.29,0.02,147.1
2023-08-16T06:52:03,42.805,6.029,0.003,-0.027,-0.045,104.0,102.0,103.0,13.4,1505.2,322.9,-0.8,1.8,2471.457,13.29,0.027,173.7
2023-08-16T06:55:03,42.805,6.029,0.005,-0.041,-0.058,104.0,103.0,102.0,13.3,1505.2,349.1,-0.8,1.8,2471.48,13.29,0.041,173.0
2023-08-16T06:58:03,42.805,6.029,0.005,-0.025,-0.032,104.0,102.0,102.0,13.4,1505.2,323.7,-0.7,1.8,2471.509,13.29,0.025,168.7
2023-08-16T07:04:03,42.805,6.029,0.011,-0.02,0.021,103.0,103.0,102.0,13.4,1505.2,332.4,-0.8,1.8,2471.521,13.28,0.022,151.2
2023-08-16T07:07:03,42.805,6.029,0.021,-0.028,-0.048,103.0,104.0,102.0,13.4,1505.2,335.6,-0.8,1.9,2471.535,13.28,0.035,143.1
2023-08-16T07:10:03,42.805,6.029,0.0,-0.018,-0.002,103.0,104.0,102.0,13.4,1505.2,330.1,-0.8,1.8,2471.543,13.29,0.018,180.0
2023-08-16T07:13:03,42.805,6.029,0.035,-0.028,0.005,103.0,103.0,102.0,13.4,1505.2,324.0,-0.8,1.8,2471.498,13.29,0.044,128.7
2023-08-16T07:16:03,42.805,6.029,-0.004,-0.024,-0.037,104.0,104.0,102.0,13.4,1505.2,322.9,-0.8,1.8,2471.525,13.29,0.024,189.5
2023-08-16T07:19:03,42.805,6.029,0.018,-0.039,-0.034,104.0,103.0,102.0,13.4,1505.2,325.3,-0.7,1.8,2471.493,13.29,0.042,155.2
2023-08-16T07:22:03,42.805,6.029,0.002,-0.028,-0.04,103.0,103.0,102.0,13.4,1505.2,350.5,-0.8,1.8,2471.504,13.29,0.028,175.9
2023-08-16T07:25:03,42.805,6.029,0.012,-0.03,-0.009,104.0,104.0,102.0,13.4,1505.2,335.0,-0.8,1.8,2471.526,13.29,0.032,158.2
2023-08-16T07:28:03,42.805,6.029,-0.004,-0.064,-0.04,104.0,103.0,102.0,13.4,1505.2,334.3,-0.8,1.8,2471.493,13.29,0.064,183.6
2023-08-16T07:31:03,42.805,6.029,0.009,-0.022,0.002,104.0,104.0,102.0,13.4,1505.2,321.3,-0.8,1.8,2471.469,13.29,0.023,157.8
2023-08-16T07:34:03,42.805,6.029,0.0,-0.019,-0.022,104.0,103.0,101.0,13.3,1505.2,332.2,-0.7,1.8,2471.466,13.29,0.019,180.0
2023-08-16T07:37:03,42.805,6.029,-0.016,-0.028,-0.034,103.0,104.0,102.0,13.4,1505.2,350.3,-0.8,1.8,2471.455,13.29,0.032,209.7
2023-08-16T07:40:03,42.805,6.029,0.0,-0.001,-0.001,103.0,105.0,102.0,13.3,1505.2,341.1,-0.8,1.8,2471.482,13.29,0.001,180.0
2023-08-16T07:43:03,42.805,6.029,-0.003,-0.01,-0.04,104.0,103.0,102.0,13.4,1505.2,330.2,-0.8,1.8,2471.498,13.29,0.01,196.7
2023-08-16T07:46:03,42.805,6.029,0.005,-0.026,-0.046,104.0,104.0,102.0,13.4,1505.2,338.4,-0.8,1.8,2471.475,13.29,0.026,169.1
2023-08-16T07:49:03,42.805,6.029,0.0,-0.004,-0.004,104.0,103.0,102.0,13.4,1505.2,328.8,-0.8,1.8,2471.508,13.29,0.004,180.0
2023-08-16T07:52:03,42.805,6.029,-0.039,-0.002,-0.027,103.0,104.0,105.0,13.4,1505.2,348.9,-0.8,1.9,2471.484,13.29,0.039,267.1
2023-08-16T07:55:03,42.805,6.029,0.025,-0.039,-0.029,104.0,104.0,102.0,13.4,1505.2,320.5,-0.8,1.8,2471.483,13.29,0.046,147.3
2023-08-16T07:58:03,42.805,6.029,0.002,-0.027,-0.031,104.0,103.0,102.0,13.4,1505.2,332.9,-0.7,1.8,2471.468,13.29,0.027,175.8
2023-08-16T08:04:03,42.805,6.029,-0.015,-0.001,-0.028,104.0,103.0,101.0,13.3,1505.2,335.7,-0.8,1.8,2471.494,13.28,0.015,266.2
2023-08-16T08:07:03,42.805,6.029,-0.001,-0.046,-0.019,104.0,103.0,102.0,13.4,1505.2,352.0,-0.8,1.8,2471.496,13.28,0.046,181.2
2023-08-16T08:10:03,42.805,6.029,-0.003,-0.016,-0.002,105.0,102.0,102.0,13.4,1505.2,328.0,-0.8,1.8,2471.49,13.29,0.016,190.6
2023-08-16T08:13:03,42.805,6.029,0.004,-0.022,-0.031,104.0,103.0,101.0,13.4,1505.2,326.5,-0.8,1.8,2471.512,13.29,0.022,169.7
2023-08-16T08:16:03,42.805,6.029,-0.013,0.0,-0.048,104.0,104.0,103.0,13.3,1505.2,342.3,-0.7,1.9,2471.493,13.29,0.013,270.0
2023-08-16T08:19:03,42.805,6.029,-0.007,-0.015,-0.062,104.0,103.0,102.0,13.3,1505.2,348.0,-0.8,1.8,2471.489,13.29,0.016,205.0
2023-08-16T08:22:03,42.805,6.029,-0.001,-0.017,-0.021,104.0,104.0,101.0,13.4,1505.2,341.9,-0.8,1.8,2471.489,13.29,0.017,183.4
2023-08-16T08:25:03,42.805,6.029,-0.004,-0.019,-0.038,104.0,103.0,102.0,13.4,1505.2,346.2,-0.8,1.8,2471.518,13.29,0.019,191.9
2023-08-16T08:28:03,42.805,6.029,-0.005,-0.028,-0.02,104.0,103.0,102.0,13.4,1505.2,329.2,-0.8,1.8,2471.48,13.29,0.028,190.1
2023-08-16T08:31:03,42.805,6.029,0.012,-0.045,-0.077,104.0,103.0,101.0,13.4,1505.2,333.4,-0.8,1.8,2471.46,13.29,0.046,165.1
2023-08-16T08:34:03,42.805,6.029,0.013,-0.027,-0.04,104.0,103.0,101.0,13.4,1505.2,325.5,-0.7,1.8,2471.496,13.29,0.029,154.3
2023-08-16T08:37:03,42.805,6.029,-0.026,-0.023,-0.055,104.0,103.0,102.0,13.4,1505.2,331.1,-0.7,1.8,2471.46,13.29,0.034,228.5
2023-08-16T08:40:03,42.805,6.029,0.011,-0.026,-0.02,104.0,102.0,103.0,13.4,1505.2,322.7,-0.8,1.8,2471.474,13.29,0.028,157.1
2023-08-16T08:43:03,42.805,6.029,-0.011,-0.012,-0.02,104.0,103.0,103.0,13.3,1505.2,323.8,-0.7,1.8,2471.462,13.29,0.016,222.5
2023-08-16T08:46:03,42.805,6.029,-0.012,-0.026,-0.03,103.0,103.0,101.0,13.4,1505.2,341.9,-0.8,1.8,2471.433,13.29,0.028,204.8
2023-08-16T08:49:03,42.805,6.029,0.0,-0.015,-0.013,103.0,103.0,101.0,13.3,1505.2,334.5,-0.8,1.9,2471.472,13.29,0.015,180.0
2023-08-16T08:52:03,42.805,6.029,0.008,-0.019,-0.011,104.0,104.0,101.0,13.4,1505.2,325.4,-0.8,1.8,2471.469,13.29,0.02,157.2
2023-08-16T08:55:03,42.805,6.029,-0.004,-0.012,-0.027,103.0,104.0,102.0,13.4,1505.2,329.7,-0.8,1.8,2471.445,13.29,0.012,198.4
2023-08-16T08:58:03,42.805,6.029,0.0,-0.019,-0.019,104.0,104.0,102.0,13.4,1505.2,329.8,-0.8,1.8,2471.444,13.29,0.019,180.0
2023-08-16T09:04:03,42.805,6.029,-0.003,-0.005,-0.005,104.0,102.0,103.0,13.4,1505.2,330.9,-0.8,1.8,2471.475,13.28,0.005,211.0
2023-08-16T09:07:03,42.805,6.029,-0.019,-0.021,-0.036,104.0,104.0,102.0,13.4,1505.2,326.8,-0.8,1.9,2471.508,13.29,0.028,222.1
2023-08-16T09:10:03,42.805,6.029,0.012,-0.044,-0.013,104.0,103.0,102.0,13.4,1505.2,342.5,-0.8,1.8,2471.465,13.29,0.045,164.7
2023-08-16T09:13:03,42.805,6.029,-0.011,-0.01,-0.028,104.0,104.0,101.0,13.3,1505.2,351.3,-0.8,1.8,2471.501,13.29,0.014,227.7
2023-08-16T09:16:03,42.805,6.029,-0.001,-0.017,-0.018,105.0,103.0,102.0,13.4,1505.2,321.7,-0.8,1.8,2471.467,13.29,0.017,183.4
2023-08-16T09:19:03,42.805,6.029,-0.015,-0.026,-0.032,104.0,103.0,102.0,13.4,1505.2,341.2,-0.8,1.8,2471.449,13.29,0.03,210.0
2023-08-16T09:22:03,42.805,6.029,-0.014,-0.029,-0.056,104.0,102.0,101.0,13.4,1505.2,333.4,-0.8,1.8,2471.446,13.29,0.032,205.8
2023-08-16T09:25:03,42.805,6.029,-0.021,0.001,-0.023,104.0,103.0,102.0,13.3,1505.2,336.8,-0.7,1.8,2471.474,13.29,0.021,272.7
2023-08-16T09:28:03,42.805,6.029,-0.053,-0.016,-0.034,103.0,103.0,103.0,13.4,1505.2,328.5,-0.7,1.8,2471.466,13.29,0.055,253.2
2023-08-16T09:31:03,42.805,6.029,-0.04,-0.01,-0.033,105.0,102.0,102.0,13.4,1505.2,326.5,-0.8,1.8,2471.425,13.29,0.041,256.0
2023-08-16T09:34:03,42.805,6.029,-0.019,-0.017,-0.037,103.0,104.0,102.0,13.3,1505.2,339.6,-0.8,1.8,2471.447,13.29,0.025,228.2
2023-08-16T09:37:03,42.805,6.029,-0.014,-0.021,-0.041,104.0,104.0,101.0,13.4,1505.2,331.4,-0.8,1.8,2471.433,13.29,0.025,213.7
2023-08-16T09:40:03,42.805,6.029,-0.034,-0.006,-0.022,104.0,103.0,102.0,13.4,1505.2,329.9,-0.8,1.8,2471.437,13.29,0.034,260.0
2023-08-16T09:43:03,42.805,6.029,-0.036,-0.001,0.0,104.0,102.0,102.0,13.3,1505.2,322.7,-0.8,1.8,2471.421,13.29,0.036,268.4
2023-08-16T09:46:03,42.805,6.029,-0.026,-0.012,-0.011,104.0,103.0,101.0,13.4,1505.2,338.8,-0.8,1.8,2471.421,13.29,0.028,245.2
2023-08-16T09:49:03,42.805,6.029,-0.023,-0.002,-0.002,104.0,103.0,102.0,13.4,1505.2,347.6,-0.8,1.8,2471.423,13.29,0.023,265.0